TimeEST,TemperatureF,Dew PointF,Humidity,Sea Level PressureIn,VisibilityMPH,Wind Direction,Wind SpeedMPH,Gust SpeedMPH,PrecipitationIn,Events,Conditions,WindDirDegrees,DateUTC
12:55 AM,69.1,68.0,96,30.06,10.0,SE,4.6,-,N/A,,Scattered Clouds,140,2013-01-03 05:55:00
1:55 AM,69.6,67.5,93,30.06,10.0,Calm,Calm,-,N/A,,Partly Cloudy,0,2013-01-03 06:55:00
2:55 AM,67.8,66.4,95,30.06,10.0,North,3.5,-,N/A,,Clear,360,2013-01-03 07:55:00
3:55 AM,67.3,66.6,98,30.06,10.0,Calm,Calm,-,N/A,,Partly Cloudy,0,2013-01-03 08:55:00
4:55 AM,67.6,66.6,96,30.06,10.0,Calm,Calm,-,N/A,,Clear,0,2013-01-03 09:55:00
5:16 AM,66.2,66.2,100,30.07,10.0,Calm,Calm,-,N/A,,Light Drizzle,0,2013-01-03 10:16:00
5:26 AM,66.2,66.2,100,30.07,10.0,Calm,Calm,-,N/A,,Clear,0,2013-01-03 10:26:00
5:55 AM,67.6,66.9,98,30.08,10.0,North,4.6,-,0.00,,Partly Cloudy,350,2013-01-03 10:55:00
6:55 AM,66.6,66.2,99,30.10,10.0,Calm,Calm,-,N/A,,Clear,0,2013-01-03 11:55:00
7:55 AM,66.6,66.2,99,30.11,10.0,Calm,Calm,-,N/A,,Clear,0,2013-01-03 12:55:00
8:55 AM,70.7,68.9,94,30.13,10.0,Calm,Calm,-,N/A,,Clear,0,2013-01-03 13:55:00
9:55 AM,75.9,69.3,80,30.13,10.0,Calm,Calm,-,N/A,,Partly Cloudy,0,2013-01-03 14:55:00
10:55 AM,79.7,68.9,69,30.13,10.0,SE,8.1,-,N/A,,Clear,130,2013-01-03 15:55:00
11:55 AM,80.8,68.5,66,30.11,10.0,SSE,10.4,-,N/A,,Clear,150,2013-01-03 16:55:00
12:55 PM,80.8,67.3,63,30.08,10.0,SE,9.2,-,N/A,,Clear,140,2013-01-03 17:55:00
1:55 PM,82.0,66.7,60,30.06,10.0,SSE,9.2,-,N/A,,Clear,160,2013-01-03 18:55:00
2:55 PM,82.0,66.7,60,30.06,10.0,SSE,8.1,-,N/A,,Clear,160,2013-01-03 19:55:00
3:55 PM,80.4,68.0,66,30.07,10.0,SSE,8.1,-,N/A,,Clear,150,2013-01-03 20:55:00
4:55 PM,79.0,67.6,68,30.09,10.0,SE,6.9,-,N/A,,Clear,140,2013-01-03 21:55:00
5:55 PM,74.3,68.2,81,30.10,10.0,SSE,5.8,-,N/A,,Clear,160,2013-01-03 22:55:00
6:15 PM,71.6,68.0,88,30.10,10.0,SE,5.8,-,N/A,,Light Drizzle,130,2013-01-03 23:15:00
6:20 PM,71.6,68.0,88,30.10,10.0,SE,4.6,-,N/A,,Clear,140,2013-01-03 23:20:00
6:55 PM,71.2,67.1,87,30.11,10.0,SE,3.5,-,0.00,,Clear,140,2013-01-03 23:55:00
7:55 PM,69.8,67.5,92,30.14,10.0,Calm,Calm,-,N/A,,Clear,0,2013-01-04 00:55:00
8:55 PM,67.8,67.5,99,30.14,10.0,Calm,Calm,-,N/A,,Clear,0,2013-01-04 01:55:00
9:55 PM,66.9,66.4,98,30.15,10.0,Calm,Calm,-,N/A,,Clear,0,2013-01-04 02:55:00
10:55 PM,66.7,66.4,99,30.15,10.0,Calm,Calm,-,N/A,,Clear,0,2013-01-04 03:55:00
11:55 PM,65.7,65.3,99,30.14,10.0,Calm,Calm,-,N/A,,Clear,0,2013-01-04 04:55:00